Regional Weather Roundup
Issued by NWS

Home | Current Version | Previous Version | Text Only | Print | Product List | Glossary On
Versions: 1 2 3 4 5 6 7 8 9 10 11 12 13 14 15 16 17 18 19 20 21 22 23 24 25 26 27 28 29 30 31 32 33 34 35 36 37 38 39 40 41 42 43 44 45 46
000
ASPQ40 PGUM 222212
RWRPQ
WEATHER ROUNDUP FOR THE MARIANAS AND MICRONESIA
NATIONAL WEATHER SERVICE TIYAN GU
800 AM CHST TUE SEP 23 2014

GUZ001>004-222300-
MARIANA ISLANDS-

CITY           SKY/WX    TMP DP  RH WIND       PRES   REMARKS
GUAM AIRPORT   PTSUNNY   79  75  89 E5        29.77R
ANDERSEN AFB   DRIZZLE   75  75 100 CALM      29.77R
ROTA AIRPORT   LGT RAIN  75  73  94 VRB6      29.76R FOG
TINIAN AP      MOSUNNY   81  77  89 N7        29.73R
SAIPAN AP      CLOUDY    81  77  89 NE7       29.73R

$$

PMZ161-222300-
REPUBLIC OF PALAU-

CITY           SKY/WX    TMP DP  RH WIND       PRES   REMARKS
KOROR AP       PTSUNNY   82  77  83 W6        29.83R HX  91
KOROR WSO      CLOUDY    82  77  83 W3        29.83R HX  91

$$

PMZ171>174-222300-
FEDERATED STATES OF MICRONESIA-

CITY           SKY/WX    TMP DP  RH WIND       PRES   REMARKS
YAP AIRPORT    PTSUNNY   82  77  83 VRB6      29.82R HX  91
CHUUK AP       CLOUDY    81  79  94 W12G23    29.84R
POHNPEI AP     NOT AVBL
POHNPEI WSO    CLOUDY    82  77  83 S3        29.91R HX  91
KOSRAE AP      NOT AVBL

$$

PMZ181-222300-
REPUBLIC OF THE MARSHALL ISLANDS-

CITY           SKY/WX    TMP DP  RH WIND       PRES   REMARKS
KWAJALEIN AP   PTSUNNY   82  75  78 SW8       29.85F
MAJURO AP      NOT AVBL
MAJURO WSO     PTSUNNY   84  77  79 SW12      29.84S HX  94

$$



USA.gov is the U.S. government's official web portal to all federal, state and local government web resources and services.